Voltar ao catálogo

CZ-2D DEB

AtivoPO
NORAD 44606·DEBRIS·🇨🇳 China

Lançado Nov 11, 2016 de Jiuquan Satellite Launch Center

Loading…

Próximas Passagens (próximas 24 horas)

TLE

AtualizadoSource: Space-Track

Época: Sep 12, 2026, 00:08 UTC

1 44606U 16068F   26255.00603569  .00000236  00000-0  17341-3 0  9990
2 44606  98.4225 324.3067 0222390 324.9514  33.7182 13.93041183498528

Acompanhe CZ-2D DEB em tempo real com AllMySat

Download on the App Store